Date String (YYYY-MM-DD hh:mm:ss) UTC,Instrument flags,absolute air pressure of the measurement (hPa),sample flow rate (lpm),inlet stack bypass flow (lpm),air temperature of the measurement (°C),ambient temperature measured by the external sensor (°C),aerosol sample conditioner tube jacket temperature (°C),OPC LED temperature (°C),internal box temperature (°C),relative humidity of the measurement (%),span deviation,mass concentration of particles derived from Lorenz-Mie calculation of OPC scattering (μg/m³),mass concentration of particles derived from Lorenz-Mie calculation of OPC scattering (μg/m³),mass concentration of particles derived from Lorenz-Mie calculation of OPC scattering (μg/m³)
DateTimeUTC,F1_M11,P_M11,Q1_M11,Q2_M11,T1_M11,T2_M11,T3_M11,T4_M11,T5_M11,U1_M11,ZSPAN_M11,X0_M11,X2_M11,X1_M11
2023-08-08 04:00:00,SystemResetWarning,0833.7,5.00,000.00,029.3,028.1,000.0,037.8,031.0,31.4,-001.0,0015.99,0006.05,0005.09
2023-08-08 04:01:00,SystemResetWarning,0833.7,5.01,000.00,029.4,028.2,000.0,037.8,031.1,31.7,-000.2,0015.38,0006.02,0005.06
2023-08-08 04:02:00,SystemResetWarning,0833.6,5.01,000.00,029.4,028.2,000.0,037.9,031.1,31.7,0000.2,0015.29,0005.98,0005.04
2023-08-08 04:03:00,SystemResetWarning,0833.7,5.00,000.00,029.4,028.3,000.0,037.9,031.1,31.5,0000.4,0015.77,0005.99,0005.03
2023-08-08 04:04:00,SystemResetWarning,0833.7,5.00,000.00,029.4,028.3,000.0,037.9,031.1,31.2,0000.9,0015.72,0006.00,0005.04
2023-08-08 04:05:00,SystemResetWarning,0833.7,5.00,000.00,029.5,028.3,000.0,038.0,031.2,31.3,0001.4,0015.30,0006.03,0005.04
2023-08-08 04:06:00,SystemResetWarning,0833.7,5.00,000.00,029.5,028.4,000.0,038.0,031.2,31.3,0001.3,0014.79,0006.03,0005.04
2023-08-08 04:07:00,SystemResetWarning,0833.7,4.99,000.00,029.5,028.4,000.0,038.0,031.2,31.2,0000.6,0014.31,0006.01,0005.05
2023-08-08 04:08:00,SystemResetWarning,0833.8,4.99,000.00,029.6,027.8,000.0,038.0,031.2,31.2,0000.6,0014.07,0005.99,0005.03
2023-08-08 04:09:00,SystemResetWarning,0833.7,5.01,000.00,029.5,025.9,000.0,037.8,030.9,31.1,0000.6,0013.10,0005.95,0005.02
2023-08-08 04:10:00,SystemResetWarning,0833.8,5.00,000.00,029.4,025.2,000.0,037.7,030.7,31.1,0000.8,0013.01,0005.91,0004.99
2023-08-08 04:11:00,SystemResetWarning,0833.8,5.01,000.00,029.3,025.3,000.0,037.7,030.4,31.2,0000.2,0013.32,0005.89,0004.97
2023-08-08 04:12:00,SystemResetWarning,0833.8,5.01,000.00,029.2,025.6,000.0,037.8,030.5,31.3,0000.0,0013.29,0005.90,0004.99
2023-08-08 04:13:00,SystemResetWarning,0833.8,5.00,000.00,029.2,026.0,000.0,037.8,030.5,31.3,0000.0,0012.75,0005.92,0005.01
2023-08-08 04:14:00,SystemResetWarning,0833.8,5.00,000.00,029.2,026.4,000.0,037.8,030.6,31.3,0000.0,0011.79,0005.91,0005.01
2023-08-08 04:15:00,SystemResetWarning,0833.7,4.99,000.00,029.2,026.8,000.0,037.8,030.7,31.4,0000.0,0011.66,0005.91,0005.00
2023-08-08 04:16:00,SystemResetWarning,0833.8,4.99,000.00,029.2,027.0,000.0,037.8,030.8,31.5,0000.0,0011.68,0005.85,0004.99
2023-08-08 04:17:00,SystemResetWarning,0833.8,5.00,000.00,029.2,027.3,000.0,037.8,030.8,31.4,0000.0,0011.61,0005.83,0004.98
2023-08-08 04:18:00,SystemResetWarning,0833.8,5.01,000.00,029.2,027.5,000.0,037.8,030.9,31.3,0000.0,0012.07,0005.87,0004.97
2023-08-08 04:19:00,SystemResetWarning,0833.8,5.01,000.00,029.2,027.6,000.0,037.8,030.9,31.2,0000.0,0012.31,0005.89,0004.97
2023-08-08 04:20:00,SystemResetWarning,0833.8,4.99,000.00,029.3,027.7,000.0,037.8,030.9,31.1,0000.0,0012.64,0005.91,0004.97
2023-08-08 04:21:00,SystemResetWarning,0833.8,4.99,000.00,029.3,027.9,000.0,037.8,030.9,31.0,0000.0,0012.97,0005.93,0004.97
2023-08-08 04:22:00,SystemResetWarning,0833.7,5.00,000.00,029.3,027.9,000.0,037.9,031.0,31.0,-000.0,0013.03,0005.92,0004.96
2023-08-08 04:23:00,SystemResetWarning,0833.8,5.01,000.00,029.3,028.0,000.0,037.9,031.0,30.9,-000.6,0012.32,0005.92,0004.98
2023-08-08 04:24:00,SystemResetWarning,0833.8,5.01,000.00,029.4,028.1,000.0,037.9,031.0,30.9,-000.7,0012.77,0005.92,0004.97
2023-08-08 04:25:00,SystemResetWarning,0833.8,5.00,000.00,029.4,028.1,000.0,037.9,031.1,30.9,-000.2,0012.88,0005.93,0004.96
2023-08-08 04:26:00,SystemResetWarning,0833.8,4.99,000.00,029.4,028.2,000.0,037.9,031.1,30.9,0000.1,0012.94,0005.95,0004.98
2023-08-08 04:27:00,SystemResetWarning,0833.8,4.99,000.00,029.4,028.2,000.0,038.0,031.1,30.9,0000.3,0012.78,0006.01,0005.01
2023-08-08 04:28:00,SystemResetWarning,0833.8,5.01,000.00,029.5,028.3,000.0,038.0,031.2,30.8,0001.0,0012.82,0006.05,0005.04
2023-08-08 04:29:00,SystemResetWarning,0833.8,5.01,000.00,029.5,028.3,000.0,038.0,031.2,30.8,0001.1,0012.63,0006.04,0005.07
2023-08-08 04:30:00,SystemResetWarning,0833.8,5.00,000.00,029.5,028.4,000.0,038.0,031.2,30.8,0000.8,0012.01,0006.05,0005.09
2023-08-08 04:31:00,SystemResetWarning,0833.8,4.99,000.00,029.5,028.4,000.0,038.0,031.2,30.9,-000.3,0012.30,0006.05,0005.12
2023-08-08 04:32:00,SystemResetWarning,0833.8,4.99,000.00,029.6,028.4,000.0,038.1,031.3,30.9,-000.7,0013.53,0006.06,0005.13
2023-08-08 04:33:00,SystemResetWarning,0833.8,5.00,000.00,029.6,027.9,000.0,038.0,031.2,30.6,-000.6,0013.19,0006.08,0005.16
2023-08-08 04:34:00,SystemResetWarning,0833.8,5.00,000.00,029.5,026.0,000.0,037.9,030.9,30.5,-000.1,0013.39,0006.07,0005.17
2023-08-08 04:35:00,SystemResetWarning,0833.9,5.01,000.00,029.5,025.1,000.0,037.8,030.7,30.5,0000.0,0013.29,0006.12,0005.18
2023-08-08 04:36:00,SystemResetWarning,0833.8,5.00,000.00,029.3,025.2,000.0,037.8,030.4,30.8,-000.4,0013.24,0006.14,0005.20
2023-08-08 04:37:00,SystemResetWarning,0833.8,5.00,000.00,029.2,025.5,000.0,037.8,030.4,31.0,-000.4,0013.11,0006.14,0005.20
2023-08-08 04:38:00,SystemResetWarning,0833.9,5.00,000.00,029.2,025.9,000.0,037.8,030.5,31.0,-000.8,0013.44,0006.11,0005.18
2023-08-08 04:39:00,SystemResetWarning,0833.8,5.00,000.00,029.2,026.3,000.0,037.8,030.6,31.0,-001.3,0014.24,0006.12,0005.16
2023-08-08 04:40:00,SystemResetWarning,0833.9,5.00,000.00,029.2,026.7,000.0,037.8,030.7,31.1,-001.5,0014.53,0006.17,0005.15
2023-08-08 04:41:00,SystemResetWarning,0834.0,5.00,000.00,029.2,027.0,000.0,037.8,030.8,31.1,-000.7,0015.26,0006.20,0005.15
2023-08-08 04:42:00,SystemResetWarning,0833.9,5.00,000.00,029.2,027.2,000.0,037.8,030.8,31.0,-000.9,0015.51,0006.22,0005.16
2023-08-08 04:43:00,SystemResetWarning,0833.9,5.00,000.00,029.2,027.4,000.0,037.8,030.8,31.0,-000.2,0014.10,0006.26,0005.16
2023-08-08 04:44:00,SystemResetWarning,0834.0,5.00,000.00,029.2,027.5,000.0,037.9,030.8,31.0,-000.7,0013.77,0006.23,0005.17
2023-08-08 04:45:00,SystemResetWarning,0834.0,4.99,000.00,029.3,027.7,000.0,037.9,030.9,31.3,-001.1,0015.05,0006.23,0005.15
2023-08-08 04:46:00,SystemResetWarning,0833.9,5.00,000.00,029.3,027.8,000.0,037.9,030.9,31.3,-001.2,0015.57,0006.25,0005.14
2023-08-08 04:47:00,SystemResetWarning,0833.9,5.00,000.00,029.3,027.9,000.0,037.9,031.0,31.1,-000.8,0016.74,0006.28,0005.12
2023-08-08 04:48:00,SystemResetWarning,0833.8,5.00,000.00,029.3,028.0,000.0,037.9,031.0,30.9,-001.1,0017.07,0006.26,0005.12
2023-08-08 04:49:00,SystemResetWarning,0833.9,5.00,000.00,029.3,028.0,000.0,037.9,031.0,30.8,-001.0,0016.53,0006.26,0005.12
2023-08-08 04:50:00,SystemResetWarning,0833.8,5.00,000.00,029.4,028.1,000.0,037.9,031.0,30.7,-000.6,0015.69,0006.26,0005.13
2023-08-08 04:51:00,SystemResetWarning,0833.8,5.00,000.00,029.4,028.2,000.0,037.9,031.1,30.7,-000.5,0015.83,0006.23,0005.14
2023-08-08 04:52:00,SystemResetWarning,0833.9,5.00,000.00,029.4,028.2,000.0,038.0,031.1,30.7,-000.1,0015.09,0006.15,0005.12
2023-08-08 04:53:00,SystemResetWarning,0833.9,5.01,000.00,029.4,028.3,000.0,038.0,031.1,30.6,-000.0,0015.30,0006.14,0005.12
2023-08-08 04:54:00,SystemResetWarning,0833.9,5.00,000.00,029.5,028.3,000.0,038.0,031.1,30.6,-000.2,0016.16,0006.11,0005.11
2023-08-08 04:55:00,SystemResetWarning,0833.9,5.00,000.00,029.5,028.3,000.0,038.0,031.2,30.6,-000.2,0016.37,0006.12,0005.10
2023-08-08 04:56:00,SystemResetWarning,0833.9,5.00,000.00,029.5,028.4,000.0,038.0,031.2,30.6,0000.0,0014.94,0006.10,0005.10
2023-08-08 04:57:00,SystemResetWarning,0833.9,5.00,000.00,029.5,028.4,000.0,038.1,031.2,30.6,0000.0,0014.88,0006.05,0005.10
2023-08-08 04:58:00,SystemResetWarning,0833.9,5.00,000.00,029.6,028.4,000.0,038.1,031.2,30.6,0000.0,0014.43,0006.02,0005.11
2023-08-08 04:59:00,SystemResetWarning,0833.8,5.00,000.00,029.6,028.4,000.0,038.1,031.3,30.7,0000.0,0014.41,0006.04,0005.12
